Orbital Elements at Epoch 2459000.5 (2020-May-31.0) TDB
Reference: JPL 3 (heliocentric ecliptic J2000)
Element | Value | Uncertainty (1-sigma) | Units |
e | .300217244831873 | 0.00071176 | |
a | 1.323383066934619 | 0.0011539 | au |
q | .9260806487223537 | 0.00013451 | au |
i | 6.065978036698175 | 0.01167 | deg |
node | 191.5776678417507 | 0.0010007 | deg |
peri | 54.70721250519889 | 0.00065734 | deg |
M | 8.801651990832541 | 0.001157 | deg |
tp | 2458986.904709897418 (2020-May-17.40470990) | 0.016052 | TDB |
period | 556.0665704605361 1.52 | 0.72725 0.001991 | d yr |
n | .6474044999717333 | 0.0008467 | deg/d |
Q | 1.720685485146885 | 0.0015003 | au |
|
| | Orbit Determination Parameters
Additional Information
|